Sault Sainte Marie, MI

7:04 PM EST on February 06, 2016 (GMT -0500)
Sault Ste Marie Municipal / Sanderson Field

Weather History for KANJ - October, 2011

Change the Weather History Date:

Sunday, October 23, 2011

  Actual Average Record
Temperature  
Mean Temperature 46 °F 43 °F  
Max Temperature 54 °F 50 °F 77 °F (1963)
Min Temperature 38 °F 36 °F 20 °F (1969)
Degree Days  
Heating Degree Days 19 22  
Month to date heating degree days 282 415  
Since 1 July heating degree days 523 816  
Cooling Degree Days 0 0  
Month to date cooling degree days 3 0  
Year to date cooling degree days 255 195  
Moisture  
Dew Point 40 °F    
Average Humidity 79    
Maximum Humidity 96    
Minimum Humidity 61    
Precipitation  
Precipitation 0.05 in 0.12 in 1.39 in (1979)
Month to date precipitation 3.31 2.86  
Year to date precipitation 31.47 25.85  
Snow  
Snow 0.00 in 0.10 in 4.70 in (2013)
Month to date snowfall 0.0 0.7  
Since 1 July snowfall T 0.7  
Snow Depth 0.00 in    
Sea Level Pressure  
Sea Level Pressure 29.92 in    
Wind  
Wind Speed 3 mph (SE)    
Max Wind Speed 12 mph    
Max Gust Speed 13 mph    
Visibility 5 miles    
Events Fog , Rain    
T = Trace of Precipitation, MM = Missing Value Source: NWS Daily Summary

Daily Weather History Graph

Daily Weather History Graph

Search for Another Location

Airport or City:

Trip Planner

Search our weather history database for the weather conditions in past years. The results will help you decide how hot, cold, wet, or windy it might be!

Date:

Astronomy

Oct. 23, 2011 Rise Set
Actual Time 8:05 AM EDT 6:37 PM EDT
Civil Twilight 7:34 AM EDT 7:07 PM EDT
Nautical Twilight 6:59 AM EDT 7:43 PM EDT
Astronomical Twilight 6:24 AM EDT 8:17 PM EDT
Moon 3:59 AM EDT (10/23) 4:37 PM EDT (10/23)
Length of Visible Light 11h 33m
Length of Day
10h 31m
Waning Crescent, 14% of the Moon is Illuminated
Oct 23
Waning Crescent
Oct 26
New
Nov 2
First Quarter
Nov 10
Full
Nov 18
Last Quarter

Hourly Weather History & Observations

Time (EDT) Temp. Windchill Dew Point Humidity Pressure Visibility Wind Dir Wind Speed Gust Speed Precip Events Conditions
12:55 AM 44.1 °F 42.5 °F 41.0 °F 89% 30.00 in 6.0 mi East 3.5 mph - N/A   Overcast
1:55 AM 43.0 °F - 39.9 °F 89% 29.99 in 7.0 mi Calm Calm - N/A   Mostly Cloudy
2:55 AM 43.0 °F 41.3 °F 39.0 °F 86% 29.99 in 5.0 mi East 3.5 mph - N/A   Mostly Cloudy
3:15 AM 39.2 °F - 37.4 °F 93% 29.98 in 1.8 mi Calm Calm - N/A   Mostly Cloudy
3:24 AM 39.2 °F 37.0 °F 37.4 °F 93% 29.98 in 0.5 mi ESE 3.5 mph - N/A Fog Fog
3:30 AM 41.0 °F 39.0 °F 37.4 °F 87% 29.97 in 2.0 mi ESE 3.5 mph - N/A   Mostly Cloudy
3:37 AM 42.8 °F - 39.2 °F 87% 29.97 in 5.0 mi Calm Calm - N/A   Overcast
3:46 AM 42.8 °F 41.1 °F 39.2 °F 87% 29.97 in 4.0 mi East 3.5 mph - N/A   Overcast
3:55 AM 42.1 °F - 39.9 °F 92% 29.98 in 2.0 mi Calm Calm - N/A   Overcast
4:01 AM 42.8 °F - 39.2 °F 87% 29.97 in 0.8 mi Calm Calm - N/A   Overcast
4:09 AM 41.0 °F - 39.2 °F 93% 29.97 in 0.5 mi Calm Calm - N/A Fog Fog
4:55 AM 39.0 °F 36.8 °F 36.0 °F 89% 29.96 in 0.2 mi ESE 3.5 mph - N/A Fog Fog
5:55 AM 41.0 °F 39.0 °F 39.9 °F 96% 29.96 in 0.2 mi East 3.5 mph - N/A Fog Fog
6:55 AM 42.1 °F 40.2 °F 39.9 °F 92% 29.96 in 0.2 mi Variable 3.5 mph - N/A Fog Fog
7:55 AM 42.1 °F - 41.0 °F 96% 29.96 in 0.2 mi Calm Calm - N/A Fog Fog
8:55 AM 41.0 °F - 39.9 °F 96% 29.97 in 0.2 mi Calm Calm - N/A Fog Fog
9:55 AM 43.0 °F 41.3 °F 41.0 °F 93% 29.96 in 0.2 mi ESE 3.5 mph - N/A Fog Fog
10:55 AM 44.1 °F - 43.0 °F 96% 29.96 in 0.5 mi Calm Calm - N/A Fog Fog
11:08 AM 44.6 °F 43.1 °F 42.8 °F 93% 29.94 in 2.0 mi SSE 3.5 mph - N/A   Overcast
11:18 AM 44.6 °F 43.1 °F 42.8 °F 93% 29.93 in 0.8 mi East 3.5 mph - N/A   Overcast
11:30 AM 44.6 °F 42.2 °F 42.8 °F 93% 29.93 in 1.8 mi ESE 4.6 mph - N/A   Overcast
11:37 AM 44.6 °F 42.2 °F 42.8 °F 93% 29.92 in 2.5 mi Variable 4.6 mph - N/A   Overcast
11:45 AM 44.6 °F 42.2 °F 42.8 °F 93% 29.92 in 5.0 mi SE 4.6 mph - N/A   Overcast
11:55 AM 45.0 °F 43.5 °F 43.0 °F 93% 29.93 in 6.0 mi East 3.5 mph - N/A   Overcast
12:43 PM 46.4 °F 44.3 °F 42.8 °F 87% 29.91 in 10.0 mi SSE 4.6 mph - N/A   Overcast
12:55 PM 46.9 °F - 42.1 °F 83% 29.92 in 10.0 mi Calm Calm - N/A   Overcast
1:37 PM 48.2 °F - 42.8 °F 82% 29.89 in 10.0 mi SE 5.8 mph - N/A   Overcast
1:55 PM 48.0 °F - 42.1 °F 80% 29.90 in 10.0 mi SSE 5.8 mph - N/A   Scattered Clouds
2:55 PM 50.0 °F - 42.1 °F 74% 29.88 in 10.0 mi Variable 4.6 mph - N/A   Clear
3:55 PM 52.0 °F - 41.0 °F 66% 29.86 in 10.0 mi SSW 4.6 mph - N/A   Scattered Clouds
4:55 PM 53.1 °F - 41.0 °F 64% 29.85 in 10.0 mi SSW 8.1 mph - N/A   Clear
5:55 PM 50.0 °F - 39.0 °F 66% 29.84 in 10.0 mi South 4.6 mph - N/A   Mostly Cloudy
6:55 PM 50.0 °F - 37.9 °F 63% 29.84 in 10.0 mi SSE 4.6 mph - N/A   Overcast
7:55 PM 48.0 °F - 37.9 °F 68% 29.83 in 10.0 mi SSE 4.6 mph - N/A   Overcast
8:55 PM 46.9 °F - 39.9 °F 77% 29.83 in 10.0 mi South 4.6 mph - 0.00 in Rain Light Rain
9:55 PM 45.0 °F 41.8 °F 41.0 °F 86% 29.80 in 10.0 mi SE 5.8 mph - 0.01 in   Overcast
10:55 PM 45.0 °F 43.5 °F 41.0 °F 86% 29.79 in 10.0 mi ESE 3.5 mph - N/A   Overcast
11:55 PM 45.0 °F 43.5 °F 41.0 °F 86% 29.77 in 10.0 mi SSE 3.5 mph - 0.00 in Rain Light Rain